Hourly Data Report for October 11, 2016

All times are specified in Local Standard Time (LST). Add 1 hour to adjust for Daylight Saving Time where and when it is observed.

PENTICTON A
BRITISH COLUMBIA

49°27'45.000" N
119°36'08.000" W
344.40 m
1126146
71889
YYF

Download Data

Hourly Data (October 2016)
Hourly Data Report for October 11, 2016
Temp Definition
°C
Dew Point Temp Definition
°C
Rel Hum Definition
%
Wind Dir Definition
10's deg

Wind Spd Definition
km/h
Visibility Definition
km
Stn Press Definition
kPa
Hmdx Definition


Wind Chill Definition


Weather Definition


TIME
00:00 Legend Double Dagger 4.9 -1.3 64 2 9 24.1 98.22     LegendNANA
01:00 Legend Double Dagger 3.5 -1.9 68 35 9 24.1 98.25     Mainly Clear
02:00 Legend Double Dagger 2.8 -2.1 70 36 10 24.1 98.29     LegendNANA
03:00 Legend Double Dagger 2.9 -2.4 68 30 8 24.1 98.35     LegendNANA
04:00 Legend Double Dagger 3.1 -2.0 69 34 5 24.1 98.39     Mostly Cloudy
05:00 Legend Double Dagger 3.7 -2.5 64 30 5 24.1 98.39     LegendNANA
06:00 Legend Double Dagger -1.2 -3.6 84 35 6 24.1 98.45   -3 LegendNANA
07:00 Legend Double Dagger 1.2 -2.6 76 36 10 24.1 98.52     Mainly Clear
08:00 Legend Double Dagger 6.1 -2.3 55 1 7 24.1 98.57     LegendNANA
09:00 Legend Double Dagger 8.0 -1.0 53 4 12 24.1 98.60     LegendNANA
10:00 Legend Double Dagger 9.2 -0.4 51 4 14 24.1 98.59     Mainly Clear
11:00 Legend Double Dagger 10.2 -0.9 46 2 12 24.1 98.57     LegendNANA
12:00 Legend Double Dagger 10.9 -3.2 37 1 14 24.1 98.52     LegendNANA
13:00 Legend Double Dagger 11.1 -2.3 39 1 10 24.1 98.45     Mainly Clear
14:00 Legend Double Dagger 11.8 -2.4 37 34 12 24.1 98.40     LegendNANA
15:00 Legend Double Dagger 11.8 -2.4 37 1 8 24.1 98.34     LegendNANA
16:00 Legend Double Dagger 11.3 -2.5 38 34 10 24.1 98.31     Mostly Cloudy
17:00 Legend Double Dagger 7.8 -2.2 49 30 5 24.1 98.30     LegendNANA
18:00 Legend Double Dagger 3.8 -2.4 64 35 9 24.1 98.33     LegendNANA
19:00 Legend Double Dagger 3.2 -2.1 68 36 12 24.1 98.37     Mainly Clear
20:00 Legend Double Dagger 1.7 -3.0 71 36 3 24.1 98.35     LegendNANA
21:00 Legend Double Dagger 1.4 -2.7 74 36 1 24.1 98.35     LegendNANA
22:00 Legend Double Dagger -1.0 -3.7 82 36 2 24.1 98.37   -2 Mainly Clear
23:00 Legend Double Dagger -0.3 -2.8 83 35 3 24.1 98.40   -1 LegendNANA

Notes on Data Quality.

Legend

  • E = Estimated
  • M = Missing
  • NA = Not Available
  • ‡ = Partner data that is not subject to review by the National Climate Archives
Date modified: